Regional Weather Roundup
Issued by NWS Glasgow, MT

Home | Current Version | Previous Version | Text Only | Print | Product List | Glossary On
Versions: 1 2 3 4 5 6 7 8 9 10 11 12 13 14 15 16 17 18 19 20 21 22 23 24 25 26 27 28 29 30 31 32 33 34 35 36 37 38 39 40 41 42 43 44 45 46 47 48 49 50
000
ASUS45 KGGW 262115
RWRGGW
HOURLY WEATHER ROUNDUP FOR NORTHEAST MONTANA
NATIONAL WEATHER SERVICE GLASGOW MONTANA
300 PM MDT SUN APR 26 2015

NOTE: "FAIR" INDICATES FEW OR NO CLOUDS BELOW 12,000 FEET WITH NO
SIGNIFICANT WEATHER AND/OR OBSTRUCTIONS TO VISISBILITY.

NORTHEAST MONTANA


CITY           SKY/WX    TMP DP  RH WIND       PRES   REMARKS
GLASGOW        CLOUDY    44  32  62 N10       30.16R
PLENTYWOOD       N/A     48  33  56 N7          N/A
WOLF POINT     CLOUDY    49  35  58 N8        30.15S
JORDAN           N/A     43  32  65 NW12      30.17R
WINNETT          N/A     43  32  65 NW13        N/A
SIDNEY         MOSUNNY   52  36  54 NW8       30.13S
GLENDIVE       PTSUNNY   48  34  57 N13       30.12S
MALTA            N/A     42  32  67 NW7         N/A
SCOBEY           N/A     43  31  63 NW10G18   30.11S
OPHEIM           N/A     36  32  87 NW8       30.12R

FORT PECK REPORTS


CITY           SKY/WX    TMP DP  RH WIND       PRES   REMARKS
FORT PECK        N/A     42  34  73 NW10        N/A
THE PINES        N/A     42  32  67 N6          N/A

SOUTHEAST MONTANA


CITY           SKY/WX    TMP DP  RH WIND       PRES   REMARKS
BILLINGS       LGT RAIN  36  34  92 NE17      30.13R
MILES CITY     LGT RAIN  46  36  68 N15       30.12R
BAKER          CLOUDY    43  38  82 NE13      30.10S
LIVINGSTON     CLOUDY    42  35  76 E18       30.08R

CENTRAL MONTANA


CITY           SKY/WX    TMP DP  RH WIND       PRES   REMARKS
HAVRE          CLOUDY    41  29  62 NW6       30.20S
LEWISTOWN      CLOUDY    37  29  72 NW12      30.17R
GREAT FALLS    CLOUDY    41  27  57 VRB3      30.18S
CUT BANK       CLOUDY    44  25  47 VRB5      30.16S
HELENA         CLOUDY    39  34  82 W8        30.16S
BUTTE          CLOUDY    34  29  82 W12       30.11R
BOZEMAN        LGT RAIN  41  36  82 E7        30.08R

WESTERN MONTANA


CITY           SKY/WX    TMP DP  RH WIND       PRES   REMARKS
MISSOULA       CLOUDY    47  36  65 VRB3      30.16R
KALISPELL      NOT AVBL

NORTH DAKOTA


CITY           SKY/WX    TMP DP  RH WIND       PRES   REMARKS
WILLISTON      MOSUNNY   54  35  48 VRB6      30.13R
DICKINSON      CLOUDY    45  41  86 NE8       30.09S
MINOT          LGT RAIN  48  44  86 SE5       30.12R FOG
BISMARCK       CLOUDY    59  43  55 CALM      30.09F

SOUTHERN SASKATCHEWAN


CITY           SKY/WX    TMP DP  RH WIND       PRES   REMARKS
REGINA         CLOUDY    41  34  75 W13       30.14R
MOOSE JAW      CLOUDY    41  34  75 NW13      30.15R
ESTEVAN        MOSUNNY   50  36  57 NW10G17   30.12R
SWIFT CURRENT  CLOUDY    43  34  70 NW12      30.12S



USA.gov is the U.S. government's official web portal to all federal, state and local government web resources and services.